﻿#観測日時,平均風速,平均風向,最大風速,最大風速発生風向,最大瞬間風速,最大瞬間風速発生風向
#(年月日),(m/s)   ,(16方位),(m/s)   ,(16方位)        ,(m/s)       ,(16方位)            
2020/5/5 0:01,1.6,9,1.6,10,2.6,8
2020/5/5 0:02,1.7,9,1.7,9,2.2,9
2020/5/5 0:03,1.7,9,1.7,9,2.2,9
2020/5/5 0:04,1.7,9,1.7,9,2.1,10
2020/5/5 0:05,1.7,9,1.7,9,1.4,9
2020/5/5 0:06,1.6,9,1.7,9,1.8,9
2020/5/5 0:07,1.5,9,1.6,9,2.2,9
2020/5/5 0:08,1.3,9,1.5,9,1.8,8
2020/5/5 0:09,1.2,9,1.3,9,1.6,8
2020/5/5 0:10,1.1,9,1.2,9,0.9,8
2020/5/5 0:11,1,9,1,9,1.4,10
2020/5/5 0:12,1.2,9,1.2,9,6.5,9
2020/5/5 0:13,1.2,9,1.2,9,5,11
2020/5/5 0:14,1.2,9,1.2,9,3.6,9
2020/5/5 0:15,1.4,9,1.4,9,4.5,11
2020/5/5 0:16,1.6,9,1.6,9,5.5,10
2020/5/5 0:17,1.7,9,1.7,9,3.7,10
2020/5/5 0:18,1.8,9,1.8,9,2.9,8
2020/5/5 0:19,2,10,2,10,3.3,9
2020/5/5 0:20,2,10,2,10,4.2,9
2020/5/5 0:21,2.2,10,2.2,10,4.4,10
2020/5/5 0:22,2.1,9,2.2,10,4.8,9
2020/5/5 0:23,2,9,2.1,10,2.5,9
2020/5/5 0:24,2,9,2,10,3,8
2020/5/5 0:25,2,9,2.1,10,3,9
2020/5/5 0:26,1.9,9,2,10,4.8,8
2020/5/5 0:27,1.8,9,1.9,10,1.8,8
2020/5/5 0:28,1.6,9,1.8,10,1.1,11
2020/5/5 0:29,1.6,9,1.6,10,2.9,8
2020/5/5 0:30,1.6,9,1.6,10,2,9
2020/5/5 0:31,1.4,9,1.6,10,1.8,6
2020/5/5 0:32,1.4,8,1.4,9,1.4,5
2020/5/5 0:33,1.3,8,1.4,9,3,8
2020/5/5 0:34,1.3,8,1.3,9,2.7,7
2020/5/5 0:35,1.3,8,1.4,9,2.6,7
2020/5/5 0:36,1.1,7,1.3,9,1.5,2
2020/5/5 0:37,1.1,7,1.1,9,1.6,16
2020/5/5 0:38,1.2,6,1.2,9,1.6,16
2020/5/5 0:39,1.1,5,1.2,9,1.5,2
2020/5/5 0:40,1.2,5,1.2,9,1.9,4
2020/5/5 0:41,1.3,4,1.3,8,3.6,3
2020/5/5 0:42,1.4,4,1.4,8,3,7
2020/5/5 0:43,1.7,4,1.7,4,4.7,3
2020/5/5 0:44,1.6,4,1.7,4,3.3,4
2020/5/5 0:45,1.6,3,1.6,4,3.2,4
2020/5/5 0:46,1.7,3,1.7,4,3.2,3
2020/5/5 0:47,1.8,4,1.8,4,3.3,6
2020/5/5 0:48,1.7,4,1.8,4,1.4,4
2020/5/5 0:49,1.7,4,1.7,4,1.8,2
2020/5/5 0:50,1.7,4,1.7,4,1.9,2
2020/5/5 0:51,1.5,3,1.7,4,1.4,2
2020/5/5 0:52,1.5,3,1.5,4,1.8,2
2020/5/5 0:53,1.2,3,1.4,4,1.8,2
2020/5/5 0:54,1.2,3,1.2,4,1.8,4
2020/5/5 0:55,1.1,3,1.2,4,1.5,4
2020/5/5 0:56,1,3,1.1,4,1.3,5
2020/5/5 0:57,1,3,1,4,1.6,6
2020/5/5 0:58,1,3,1,4,1.8,6
2020/5/5 0:59,1,4,1,4,1.3,5
2020/5/5 1:00,1,4,1,4,2.2,7
2020/5/5 1:01,1.1,5,1.1,3,2.5,5
2020/5/5 1:02,1.2,5,1.2,3,3.2,7
2020/5/5 1:03,1.2,5,1.2,3,2.1,6
2020/5/5 1:04,1.2,6,1.2,3,1.6,6
2020/5/5 1:05,1.2,6,1.2,5,2.7,5
2020/5/5 1:06,1.2,6,1.2,5,1.6,5
2020/5/5 1:07,1.2,6,1.2,5,1,7
2020/5/5 1:08,1.2,7,1.2,5,3.2,10
2020/5/5 1:09,1.3,7,1.3,7,3.2,9
2020/5/5 1:10,1.3,7,1.3,7,2.7,9
2020/5/5 1:11,1.3,8,1.3,7,2.5,11
2020/5/5 1:12,1.3,9,1.4,8,2.6,12
2020/5/5 1:13,1.3,9,1.3,8,1.8,11
2020/5/5 1:14,1.3,10,1.3,8,1.5,11
2020/5/5 1:15,1.2,10,1.3,8,1.1,8
2020/5/5 1:16,1.3,10,1.3,8,2.1,11
2020/5/5 1:17,1.3,11,1.3,8,1.6,11
2020/5/5 1:18,1.3,11,1.4,8,1.6,9
2020/5/5 1:19,1.3,11,1.4,8,2.2,10
2020/5/5 1:20,1.4,11,1.4,8,2.4,11
2020/5/5 1:21,1.3,11,1.4,8,2.1,11
2020/5/5 1:22,1.3,10,1.3,11,2.7,9
2020/5/5 1:23,1.3,10,1.4,11,2.1,8
2020/5/5 1:24,1.5,10,1.5,10,3.6,8
2020/5/5 1:25,1.7,10,1.7,10,3.5,9
2020/5/5 1:26,1.8,10,1.8,10,2.7,9
2020/5/5 1:27,1.8,10,1.8,10,2.4,11
2020/5/5 1:28,1.8,10,1.8,10,2.5,10
2020/5/5 1:29,1.9,10,1.9,10,2.9,10
2020/5/5 1:30,1.8,10,1.9,10,2.6,11
2020/5/5 1:31,1.8,9,1.8,10,2.5,9
2020/5/5 1:32,1.9,9,1.9,10,3.2,9
2020/5/5 1:33,1.9,9,1.9,10,2.6,9
2020/5/5 1:34,1.8,9,1.9,10,2.5,8
2020/5/5 1:35,1.7,10,1.8,10,2.6,10
2020/5/5 1:36,1.6,10,1.6,10,2.5,10
2020/5/5 1:37,1.6,10,1.6,10,1.9,8
2020/5/5 1:38,1.4,9,1.6,10,1.8,8
2020/5/5 1:39,1.3,9,1.4,10,2.2,9
2020/5/5 1:40,1.3,9,1.3,9,2.2,8
2020/5/5 1:41,1.4,9,1.4,9,2,8
2020/5/5 1:42,1.2,9,1.3,9,1.9,8
2020/5/5 1:43,1.2,9,1.2,9,1.5,9
2020/5/5 1:44,1.1,9,1.2,10,1,7
2020/5/5 1:45,0.9,8,1.1,10,0.3,1
2020/5/5 1:46,0.8,8,0.9,10,1,16
2020/5/5 1:47,0.9,7,0.9,10,1.5,2
2020/5/5 1:48,0.9,6,0.9,9,1.1,1
2020/5/5 1:49,0.9,5,0.9,9,1.6,4
2020/5/5 1:50,0.9,4,0.9,9,2.9,3
2020/5/5 1:51,0.9,3,0.9,9,2,1
2020/5/5 1:52,0.9,3,0.9,9,1.6,1
2020/5/5 1:53,0.9,2,0.9,9,1.9,2
2020/5/5 1:54,1.1,2,1.1,8,2.2,3
2020/5/5 1:55,1.2,2,1.2,2,2.5,4
2020/5/5 1:56,1.3,2,1.3,2,1.5,4
2020/5/5 1:57,1.3,3,1.3,2,1.5,5
2020/5/5 1:58,1.3,3,1.3,2,3,1
2020/5/5 1:59,1.4,2,1.4,3,2.9,1
2020/5/5 2:00,1.4,2,1.4,3,1.6,14
2020/5/5 2:01,1.4,2,1.4,3,1.6,12
2020/5/5 2:02,1.3,1,1.4,3,1.1,11
2020/5/5 2:03,1.2,2,1.3,3,1,10
2020/5/5 2:04,1.1,4,1.2,3,1,9
2020/5/5 2:05,1.1,11,1.1,3,2,9
2020/5/5 2:06,1.1,10,1.1,3,1.5,9
2020/5/5 2:07,1,11,1.1,3,0.4,16
2020/5/5 2:08,1,11,1,3,1.8,16
2020/5/5 2:09,0.9,11,0.9,2,2.6,16
2020/5/5 2:10,1,11,1,2,2.1,16
2020/5/5 2:11,1,4,1,2,2.6,1
2020/5/5 2:12,1.1,3,1.1,1,2.5,1
2020/5/5 2:13,1.1,2,1.1,2,1.3,3
2020/5/5 2:14,1.1,2,1.2,2,1.4,2
2020/5/5 2:15,1.1,2,1.1,2,1.4,3
2020/5/5 2:16,1.1,2,1.1,2,1.5,2
2020/5/5 2:17,1.2,2,1.2,2,0.9,6
2020/5/5 2:18,1.2,2,1.2,2,2,16
2020/5/5 2:19,1.2,2,1.2,2,1.8,15
2020/5/5 2:20,1,2,1.1,2,1.3,16
2020/5/5 2:21,0.9,2,1,2,1.1,1
2020/5/5 2:22,0.8,2,0.9,2,0.8,1
2020/5/5 2:23,0.7,2,0.8,2,0.8,2
2020/5/5 2:24,0.7,2,0.7,2,1.1,2
2020/5/5 2:25,0.7,2,0.7,2,1.3,2
2020/5/5 2:26,0.7,2,0.7,2,1.3,2
2020/5/5 2:27,0.7,2,0.7,2,0.6,3
2020/5/5 2:28,0.7,2,0.7,2,2.2,3
2020/5/5 2:29,0.7,2,0.7,2,2.5,3
2020/5/5 2:30,0.8,3,0.8,2,1.6,3
2020/5/5 2:31,1,3,1,3,2.2,8
2020/5/5 2:32,1,4,1,3,2,8
2020/5/5 2:33,1.1,4,1.1,4,1.3,8
2020/5/5 2:34,1,4,1.1,4,0.9,13
2020/5/5 2:35,1,4,1,4,0.8,13
2020/5/5 2:36,0.9,5,1,4,0.8,12
2020/5/5 2:37,1,6,1,4,1,8
2020/5/5 2:38,0.9,7,1,4,1.5,9
2020/5/5 2:39,0.7,8,0.9,4,0.3,6
2020/5/5 2:40,0.7,8,0.7,4,1,3
2020/5/5 2:41,0.6,7,0.7,4,1.3,2
2020/5/5 2:42,0.6,5,0.6,4,1.8,1
2020/5/5 2:43,0.7,3,0.7,4,1.4,16
2020/5/5 2:44,0.8,3,0.8,4,1.9,16
2020/5/5 2:45,0.9,3,0.9,4,2.2,1
2020/5/5 2:46,1.1,2,1.1,2,2.4,16
2020/5/5 2:47,1.1,2,1.1,2,1.3,1
2020/5/5 2:48,1,1,1,2,0.5,15
2020/5/5 2:49,1.1,1,1.1,2,2.5,16
2020/5/5 2:50,1.2,16,1.2,1,2.1,16
2020/5/5 2:51,1.3,16,1.3,16,2.2,16
2020/5/5 2:52,1.3,16,1.3,16,2.5,15
2020/5/5 2:53,1.3,16,1.3,16,1,15
2020/5/5 2:54,1.3,16,1.3,16,3.1,16
2020/5/5 2:55,1.3,16,1.3,16,3.3,15
2020/5/5 2:56,1.3,16,1.3,16,2.9,1
2020/5/5 2:57,1.4,16,1.4,16,3.1,15
2020/5/5 2:58,1.5,16,1.5,16,2.6,2
2020/5/5 2:59,1.6,16,1.6,16,2.4,2
2020/5/5 3:00,1.6,16,1.6,16,3,3
2020/5/5 3:01,1.7,1,1.7,1,3.5,2
2020/5/5 3:02,1.5,1,1.7,1,2.2,2
2020/5/5 3:03,1.7,1,1.7,1,3.7,3
2020/5/5 3:04,1.8,2,1.8,2,4.2,3
2020/5/5 3:05,1.7,2,1.8,2,3.6,3
2020/5/5 3:06,1.7,3,1.7,2,2.9,1
2020/5/5 3:07,1.7,3,1.7,2,3.6,3
2020/5/5 3:08,1.7,3,1.7,2,3.8,4
2020/5/5 3:09,1.6,3,1.7,2,1.3,1
2020/5/5 3:10,1.4,3,1.6,2,1.1,15
2020/5/5 3:11,1.2,3,1.4,2,0.5,12
2020/5/5 3:12,1.3,3,1.3,2,2.1,11
2020/5/5 3:13,1.3,2,1.3,2,2.2,11
2020/5/5 3:14,1.2,15,1.3,2,2.2,11
2020/5/5 3:15,1.1,12,1.2,2,1.5,11
2020/5/5 3:16,1.1,11,1.1,3,1.6,9
2020/5/5 3:17,1.1,11,1.1,3,2.5,8
2020/5/5 3:18,1,11,1.1,3,2.6,8
2020/5/5 3:19,1.1,10,1.1,3,1.4,9
2020/5/5 3:20,1.1,10,1.1,3,1.4,9
2020/5/5 3:21,1.2,10,1.2,3,1.3,9
2020/5/5 3:22,1,10,1.2,3,0.6,10
2020/5/5 3:23,0.9,9,1,2,0.8,2
2020/5/5 3:24,0.8,9,0.9,14,1.3,9
2020/5/5 3:25,0.8,9,0.8,10,1.5,11
2020/5/5 3:26,0.9,10,0.9,10,2.1,14
2020/5/5 3:27,0.9,10,0.9,10,3,15
2020/5/5 3:28,1,12,1,10,3.2,15
2020/5/5 3:29,1.2,12,1.2,10,3.1,13
2020/5/5 3:30,1.3,13,1.3,12,2.2,12
2020/5/5 3:31,1.3,14,1.3,12,2,4
2020/5/5 3:32,1.5,14,1.5,14,2.7,5
2020/5/5 3:33,1.5,13,1.6,14,3.5,2
2020/5/5 3:34,1.6,14,1.6,14,1,6
2020/5/5 3:35,1.5,16,1.5,14,0.4,16
2020/5/5 3:36,1.4,1,1.4,14,1.9,10
2020/5/5 3:37,1.4,9,1.4,14,2.5,11
2020/5/5 3:38,1.2,9,1.4,14,1.9,13
2020/5/5 3:39,1.2,9,1.2,14,2.2,13
2020/5/5 3:40,1.2,11,1.2,14,2.4,13
2020/5/5 3:41,1.2,12,1.2,14,1.8,13
2020/5/5 3:42,1.2,12,1.2,14,2.4,11
2020/5/5 3:43,1.2,12,1.2,13,1.8,11
2020/5/5 3:44,1.2,12,1.2,14,1.1,12
2020/5/5 3:45,1.2,13,1.2,16,0.8,13
2020/5/5 3:46,1.1,13,1.2,1,1,12
2020/5/5 3:47,1.1,13,1.1,9,1.5,14
2020/5/5 3:48,1.2,13,1.2,9,1.9,14
2020/5/5 3:49,1.1,13,1.2,9,2.1,14
2020/5/5 3:50,1.2,13,1.2,11,2.5,13
2020/5/5 3:51,1.2,13,1.2,12,2.4,12
2020/5/5 3:52,1.3,13,1.3,13,2.7,11
2020/5/5 3:53,1.4,13,1.4,13,2.4,11
2020/5/5 3:54,1.4,12,1.4,13,1.4,11
2020/5/5 3:55,1.5,12,1.5,12,1.9,5
2020/5/5 3:56,1.6,12,1.6,12,1.9,5
2020/5/5 3:57,1.5,12,1.6,12,1.3,5
2020/5/5 3:58,1.4,11,1.5,12,0.5,4
2020/5/5 3:59,1.3,10,1.4,12,0.9,1
2020/5/5 4:00,1.1,2,1.3,12,1.1,14
2020/5/5 4:01,1.1,2,1.1,12,1.9,16
2020/5/5 4:02,1,2,1.1,12,2.1,15
2020/5/5 4:03,1,2,1,12,2.2,16
2020/5/5 4:04,1.1,2,1.1,12,2.5,9
2020/5/5 4:05,1,1,1.1,12,2.5,9
2020/5/5 4:06,1,1,1,12,1.4,15
2020/5/5 4:07,1,16,1,12,2,2
2020/5/5 4:08,1.2,16,1.2,11,3.8,4
2020/5/5 4:09,1.3,16,1.3,10,3.3,2
2020/5/5 4:10,1.3,1,1.3,16,0.9,14
2020/5/5 4:11,1.3,16,1.3,16,2.2,14
2020/5/5 4:12,1.2,16,1.3,16,2,12
2020/5/5 4:13,1.1,16,1.2,16,1,16
2020/5/5 4:14,1.1,16,1.1,16,1.5,10
2020/5/5 4:15,1.1,16,1.1,16,2,10
2020/5/5 4:16,1.1,15,1.1,16,1.4,12
2020/5/5 4:17,1.1,14,1.1,16,1.8,10
2020/5/5 4:18,0.9,13,1.1,16,1.9,10
2020/5/5 4:19,0.8,11,0.9,16,1.3,7
2020/5/5 4:20,0.8,11,0.8,1,1.1,16
2020/5/5 4:21,0.7,10,0.8,16,0.9,3
2020/5/5 4:22,0.7,10,0.7,16,2.4,14
2020/5/5 4:23,0.8,10,0.8,16,2,16
2020/5/5 4:24,0.8,10,0.8,16,2.6,3
2020/5/5 4:25,0.8,8,0.8,16,1.3,5
2020/5/5 4:26,0.8,7,0.9,15,1,8
2020/5/5 4:27,0.7,7,0.8,13,0.8,10
2020/5/5 4:28,0.7,8,0.7,12,1.8,11
2020/5/5 4:29,0.9,9,0.9,7,3.3,9
2020/5/5 4:30,1,9,1,9,2.2,10
2020/5/5 4:31,1,9,1,9,1.1,10
2020/5/5 4:32,1,9,1,9,1.8,8
2020/5/5 4:33,0.9,9,1,9,1.8,6
2020/5/5 4:34,0.9,10,0.9,9,1.9,10
2020/5/5 4:35,0.9,10,0.9,9,1.5,8
2020/5/5 4:36,0.9,11,0.9,9,0.8,14
2020/5/5 4:37,0.9,11,0.9,9,1.3,13
2020/5/5 4:38,0.9,11,0.9,9,1.8,3
2020/5/5 4:39,0.8,12,0.9,9,1.8,3
2020/5/5 4:40,0.8,11,0.8,9,1.1,4
2020/5/5 4:41,0.8,7,0.8,9,1.5,8
2020/5/5 4:42,0.8,6,0.8,9,1.1,9
2020/5/5 4:43,0.7,7,0.8,10,0.5,9
2020/5/5 4:44,0.7,6,0.7,10,1.3,9
2020/5/5 4:45,0.7,7,0.7,10,0.9,9
2020/5/5 4:46,0.7,7,0.7,11,1,9
2020/5/5 4:47,0.8,7,0.8,11,1.4,8
2020/5/5 4:48,0.7,8,0.8,12,1.3,9
2020/5/5 4:49,0.7,8,0.7,13,1,10
2020/5/5 4:50,0.7,8,0.7,11,1.8,9
2020/5/5 4:51,0.7,9,0.7,7,1.8,9
2020/5/5 4:52,0.7,9,0.7,5,1.1,9
2020/5/5 4:53,0.8,9,0.8,7,0.6,9
2020/5/5 4:54,0.7,9,0.8,7,0.5,10
2020/5/5 4:55,0.7,9,0.7,7,0.8,9
2020/5/5 4:56,0.7,9,0.7,7,0.4,12
2020/5/5 4:57,0.6,10,0.7,7,0.6,12
2020/5/5 4:58,0.6,10,0.6,9,1.3,12
2020/5/5 4:59,0.7,10,0.7,9,1.4,12
2020/5/5 5:00,0.7,10,0.7,9,2,11
2020/5/5 5:01,0.8,10,0.8,9,2.1,10
2020/5/5 5:02,0.7,11,0.8,9,0.8,10
2020/5/5 5:03,0.8,11,0.8,9,1.1,8
2020/5/5 5:04,0.9,11,0.9,11,1.1,10
2020/5/5 5:05,0.8,11,0.9,11,0.8,10
2020/5/5 5:06,0.9,11,0.9,11,0.9,11
2020/5/5 5:07,0.9,11,0.9,11,1,11
2020/5/5 5:08,0.9,11,0.9,11,1.3,13
2020/5/5 5:09,0.9,11,0.9,11,1.5,13
2020/5/5 5:10,0.9,11,0.9,11,1.9,14
2020/5/5 5:11,0.9,11,0.9,11,2,14
2020/5/5 5:12,1,12,1,12,2,15
2020/5/5 5:13,1,12,1,12,1.8,14
2020/5/5 5:14,1.1,13,1.1,13,1.9,14
2020/5/5 5:15,1.2,13,1.2,13,1.8,14
2020/5/5 5:16,1.2,13,1.2,13,1.3,13
2020/5/5 5:17,1.3,13,1.3,13,2.1,11
2020/5/5 5:18,1.3,13,1.3,13,2.1,12
2020/5/5 5:19,1.3,13,1.3,13,1.8,12
2020/5/5 5:20,1.2,13,1.3,13,0.8,10
2020/5/5 5:21,1.1,12,1.2,13,1.1,11
2020/5/5 5:22,1,12,1.1,13,0.9,10
2020/5/5 5:23,0.9,12,1,13,1.8,10
2020/5/5 5:24,0.9,12,0.9,13,0.9,11
2020/5/5 5:25,0.7,11,0.8,13,0.3,9
2020/5/5 5:26,0.7,11,0.7,13,0.5,14
2020/5/5 5:27,0.5,11,0.7,13,0.4,3
2020/5/5 5:28,0.4,11,0.5,13,0.4,4
2020/5/5 5:29,0.3,11,0.4,13,0.3,4
2020/5/5 5:30,0.3,11,0.3,13,0.1,10
2020/5/5 5:31,0.2,12,0.3,12,0.3,12
2020/5/5 5:32,0.2,12,0.2,12,0.1,12
2020/5/5 5:33,0.1,13,0.2,12,0.1,14
2020/5/5 5:34,0.1,13,0.1,11,0,11
2020/5/5 5:35,0.1,13,0.1,11,0,12
2020/5/5 5:36,0,12,0.1,11,0,11
2020/5/5 5:37,0,12,0,11,0.4,12
2020/5/5 5:38,0.1,12,0.1,11,0.8,13
2020/5/5 5:39,0.1,12,0.1,11,0.9,13
2020/5/5 5:40,0.2,12,0.2,11,1,13
2020/5/5 5:41,0.3,12,0.3,12,0.9,13
2020/5/5 5:42,0.4,12,0.4,12,1.3,12
2020/5/5 5:43,0.5,12,0.5,12,1.4,12
2020/5/5 5:44,0.6,12,0.6,12,1.5,11
2020/5/5 5:45,0.7,12,0.7,12,1.5,11
2020/5/5 5:46,0.8,12,0.8,12,1.3,11
2020/5/5 5:47,0.9,12,0.9,12,1.3,11
2020/5/5 5:48,1,12,1,12,1.3,10
2020/5/5 5:49,1,12,1,12,0.9,13
2020/5/5 5:50,1,12,1,12,0.9,15
2020/5/5 5:51,1,12,1,12,1.1,14
2020/5/5 5:52,1,12,1,12,1.1,12
2020/5/5 5:53,0.9,12,1,12,1.3,11
2020/5/5 5:54,0.9,12,0.9,12,1.5,10
2020/5/5 5:55,0.9,12,0.9,12,1.4,10
2020/5/5 5:56,0.9,12,0.9,12,1.1,10
2020/5/5 5:57,0.8,11,0.9,12,1.1,12
2020/5/5 5:58,0.8,12,0.8,12,1.3,12
2020/5/5 5:59,0.8,12,0.8,12,1.5,13
2020/5/5 6:00,0.9,11,0.9,12,1.6,12
2020/5/5 6:01,0.9,11,0.9,12,1.4,13
2020/5/5 6:02,0.9,11,0.9,12,1.3,12
2020/5/5 6:03,0.9,12,0.9,12,1,16
2020/5/5 6:04,0.8,12,0.9,12,0.8,16
2020/5/5 6:05,0.7,13,0.8,12,0.5,11
2020/5/5 6:06,0.8,13,0.8,12,0.9,12
2020/5/5 6:07,0.8,13,0.8,12,1,12
2020/5/5 6:08,0.8,13,0.8,12,1,10
2020/5/5 6:09,0.7,12,0.8,12,0.8,10
2020/5/5 6:10,0.6,12,0.7,11,0.5,13
2020/5/5 6:11,0.5,12,0.6,11,0.6,12
2020/5/5 6:12,0.5,12,0.5,11,0.5,14
2020/5/5 6:13,0.4,12,0.5,12,0.9,14
2020/5/5 6:14,0.4,12,0.4,12,0.8,16
2020/5/5 6:15,0.4,12,0.4,13,0.5,12
2020/5/5 6:16,0.4,12,0.4,13,0.5,12
2020/5/5 6:17,0.3,12,0.4,13,0.3,13
2020/5/5 6:18,0.2,13,0.3,13,0.3,14
2020/5/5 6:19,0.2,13,0.2,12,0.8,10
2020/5/5 6:20,0.3,13,0.3,12,1.4,9
2020/5/5 6:21,0.3,12,0.3,12,1,10
2020/5/5 6:22,0.3,12,0.3,12,1,11
2020/5/5 6:23,0.3,11,0.3,12,0.6,9
2020/5/5 6:24,0.3,11,0.3,12,0.4,11
2020/5/5 6:25,0.3,11,0.3,12,0.5,7
2020/5/5 6:26,0.4,10,0.4,12,1.1,8
2020/5/5 6:27,0.4,10,0.4,10,1.3,8
2020/5/5 6:28,0.5,9,0.5,10,0.8,9
2020/5/5 6:29,0.5,9,0.5,10,1.1,8
2020/5/5 6:30,0.5,9,0.6,9,1.3,8
2020/5/5 6:31,0.5,9,0.6,9,1,8
2020/5/5 6:32,0.5,8,0.5,9,0.4,7
2020/5/5 6:33,0.4,8,0.5,9,0.5,7
2020/5/5 6:34,0.5,8,0.5,9,1,8
2020/5/5 6:35,0.5,8,0.5,9,0.9,2
2020/5/5 6:36,0.5,8,0.5,9,0.8,10
2020/5/5 6:37,0.4,8,0.5,9,0.9,9
2020/5/5 6:38,0.5,8,0.5,9,1,9
2020/5/5 6:39,0.4,8,0.5,9,0.5,8
2020/5/5 6:40,0.4,8,0.4,9,0.5,5
2020/5/5 6:41,0.4,8,0.4,9,0.8,6
2020/5/5 6:42,0.4,7,0.4,8,0.8,6
2020/5/5 6:43,0.5,7,0.5,8,1.3,7
2020/5/5 6:44,0.5,7,0.5,8,1.5,7
2020/5/5 6:45,0.5,7,0.5,8,1.1,7
2020/5/5 6:46,0.5,7,0.6,7,1,8
2020/5/5 6:47,0.5,7,0.5,7,0.6,9
2020/5/5 6:48,0.5,7,0.5,7,0.8,9
2020/5/5 6:49,0.5,8,0.5,7,0.8,12
2020/5/5 6:50,0.5,8,0.5,7,1,9
2020/5/5 6:51,0.6,8,0.6,7,1.4,9
2020/5/5 6:52,0.6,8,0.6,7,1.1,9
2020/5/5 6:53,0.6,9,0.6,7,1.8,9
2020/5/5 6:54,0.6,9,0.7,9,2.1,9
2020/5/5 6:55,0.8,9,0.8,9,3.1,9
2020/5/5 6:56,1,9,1,9,3.1,9
2020/5/5 6:57,1,9,1,9,2.4,9
2020/5/5 6:58,1.2,9,1.2,9,2.1,10
2020/5/5 6:59,1.3,9,1.3,9,2.5,8
2020/5/5 7:00,1.3,9,1.3,9,2,9
2020/5/5 7:01,1.4,9,1.4,9,1.8,10
2020/5/5 7:02,1.5,9,1.5,9,2.6,9
2020/5/5 7:03,1.4,9,1.5,9,1.3,10
2020/5/5 7:04,1.3,9,1.4,9,1.4,10
2020/5/5 7:05,1.2,9,1.3,9,1.3,8
2020/5/5 7:06,1.1,9,1.2,9,1.9,9
2020/5/5 7:07,1.2,9,1.2,9,1.9,9
2020/5/5 7:08,1.1,9,1.2,9,1.6,9
2020/5/5 7:09,1,9,1.1,9,1.6,9
2020/5/5 7:10,1,9,1,9,1.3,8
2020/5/5 7:11,1,9,1,9,1.1,10
2020/5/5 7:12,0.9,10,1,9,1,10
2020/5/5 7:13,0.9,10,0.9,9,0.6,10
2020/5/5 7:14,0.9,10,0.9,9,2.2,8
2020/5/5 7:15,0.9,9,0.9,9,2.1,8
2020/5/5 7:16,0.9,9,0.9,9,1.4,8
2020/5/5 7:17,0.9,9,0.9,9,2,8
2020/5/5 7:18,0.9,9,0.9,9,2.1,8
2020/5/5 7:19,0.9,9,0.9,9,1.6,8
2020/5/5 7:20,0.9,9,0.9,9,2.1,7
2020/5/5 7:21,1,8,1,9,2,8
2020/5/5 7:22,1.1,8,1.1,8,2,8
2020/5/5 7:23,1.2,8,1.2,8,1.6,8
2020/5/5 7:24,1.2,8,1.2,8,2.6,9
2020/5/5 7:25,1.2,8,1.2,8,1.5,8
2020/5/5 7:26,1.2,8,1.2,8,0.9,9
2020/5/5 7:27,1.1,8,1.2,8,1,6
2020/5/5 7:28,1,8,1.1,8,0.4,7
2020/5/5 7:29,1,8,1,8,2.1,9
2020/5/5 7:30,0.9,8,1,8,1.6,8
2020/5/5 7:31,0.8,8,0.9,8,2.2,8
2020/5/5 7:32,0.8,8,0.8,8,2.7,9
2020/5/5 7:33,0.8,8,0.9,8,2.4,8
2020/5/5 7:34,0.7,8,0.8,8,0.9,9
2020/5/5 7:35,0.7,8,0.7,8,2.1,9
2020/5/5 7:36,0.8,8,0.8,8,2.6,8
2020/5/5 7:37,0.8,9,0.8,8,2,8
2020/5/5 7:38,0.9,9,0.9,7,2,9
2020/5/5 7:39,1,9,1,8,2.5,8
2020/5/5 7:40,1,9,1,9,2.6,9
2020/5/5 7:41,1.1,9,1.1,9,2.4,9
2020/5/5 7:42,1.1,9,1.1,9,1.9,10
2020/5/5 7:43,1.2,9,1.2,9,3.1,9
2020/5/5 7:44,1.4,9,1.4,9,3,9
2020/5/5 7:45,1.4,9,1.4,9,2,8
2020/5/5 7:46,1.4,9,1.4,9,2,11
2020/5/5 7:47,1.5,9,1.5,9,2.1,8
2020/5/5 7:48,1.6,9,1.6,9,2.6,9
2020/5/5 7:49,1.6,9,1.6,9,2,8
2020/5/5 7:50,1.6,9,1.6,9,2.4,10
2020/5/5 7:51,1.6,9,1.6,9,2,8
2020/5/5 7:52,1.6,9,1.6,9,2.1,8
2020/5/5 7:53,1.6,9,1.6,9,2.6,10
2020/5/5 7:54,1.5,9,1.6,9,2.1,10
2020/5/5 7:55,1.5,9,1.5,9,2.4,10
2020/5/5 7:56,1.5,9,1.5,9,2.2,8
2020/5/5 7:57,1.3,9,1.4,9,1.5,8
2020/5/5 7:58,1.3,9,1.3,9,2.6,9
2020/5/5 7:59,1.3,9,1.3,9,2.5,9
2020/5/5 8:00,1.2,9,1.3,9,2.2,10
2020/5/5 8:01,1.2,9,1.2,9,1.9,9
2020/5/5 8:02,1.1,10,1.2,9,1.5,12
2020/5/5 8:03,1,10,1,9,1.4,13
2020/5/5 8:04,0.9,10,1,9,1,13
2020/5/5 8:05,0.9,10,0.9,9,1.5,10
2020/5/5 8:06,1,10,1,9,2.1,10
2020/5/5 8:07,1,10,1,9,1.8,9
2020/5/5 8:08,0.9,11,1,9,0.9,13
2020/5/5 8:09,0.8,11,0.9,9,1.5,10
2020/5/5 8:10,0.8,11,0.8,9,1.5,10
2020/5/5 8:11,0.8,11,0.8,9,2.2,9
2020/5/5 8:12,0.9,10,0.9,10,1.6,8
2020/5/5 8:13,0.9,10,0.9,10,1.5,10
2020/5/5 8:14,0.8,10,0.9,10,0.3,7
2020/5/5 8:15,0.8,9,0.8,10,1,9
2020/5/5 8:16,0.7,9,0.8,10,1.3,8
2020/5/5 8:17,0.7,9,0.7,10,1.3,7
2020/5/5 8:18,0.7,9,0.7,11,0.8,14
2020/5/5 8:19,0.7,9,0.7,10,0.8,6
2020/5/5 8:20,0.6,8,0.7,10,0.8,6
2020/5/5 8:21,0.5,8,0.6,10,0.5,7
2020/5/5 8:22,0.5,8,0.5,10,1.3,1
2020/5/5 8:23,0.5,7,0.5,10,1.4,1
2020/5/5 8:24,0.6,7,0.6,9,1.1,1
2020/5/5 8:25,0.6,5,0.6,9,1.3,3
2020/5/5 8:26,0.5,4,0.6,9,0.3,3
2020/5/5 8:27,0.5,3,0.5,9,0.1,2
2020/5/5 8:28,0.4,4,0.4,9,0.6,9
2020/5/5 8:29,0.5,3,0.5,9,1.6,4
2020/5/5 8:30,0.5,4,0.5,8,1.4,4
2020/5/5 8:31,0.6,4,0.6,7,1.4,8
2020/5/5 8:32,0.6,4,0.6,7,2.2,10
2020/5/5 8:33,0.6,4,0.6,7,2.6,8
2020/5/5 8:34,0.7,5,0.7,4,2.6,8
2020/5/5 8:35,0.8,6,0.8,5,2.9,8
2020/5/5 8:36,1.1,7,1.1,7,3.7,8
2020/5/5 8:37,1.3,7,1.3,7,3,7
2020/5/5 8:38,1.4,7,1.4,7,1.9,7
2020/5/5 8:39,1.3,8,1.3,7,1.5,6
2020/5/5 8:40,1.3,8,1.3,7,2.1,8
2020/5/5 8:41,1.2,8,1.3,7,1.6,8
2020/5/5 8:42,1.3,8,1.3,7,2,10
2020/5/5 8:43,1.2,8,1.3,7,1.9,8
2020/5/5 8:44,1.1,8,1.2,7,0.6,5
2020/5/5 8:45,1,8,1.1,7,2.4,7
2020/5/5 8:46,0.9,8,1,7,2.2,7
2020/5/5 8:47,0.8,8,0.9,7,2.1,7
2020/5/5 8:48,0.9,8,0.9,7,1.8,8
2020/5/5 8:49,1,8,1,8,3,9
2020/5/5 8:50,1.1,8,1.1,8,3,10
2020/5/5 8:51,1.2,8,1.2,8,3.3,8
2020/5/5 8:52,1.2,8,1.3,8,3.8,9
2020/5/5 8:53,1.3,8,1.3,8,3.6,8
2020/5/5 8:54,1.5,8,1.5,8,2.5,8
2020/5/5 8:55,1.5,8,1.6,8,2.1,7
2020/5/5 8:56,1.5,8,1.5,8,3,9
2020/5/5 8:57,1.5,9,1.6,8,2.9,8
2020/5/5 8:58,1.6,9,1.6,8,2.4,9
2020/5/5 8:59,1.5,8,1.5,8,2.2,9
2020/5/5 9:00,1.4,8,1.5,8,2.7,9
2020/5/5 9:01,1.4,8,1.5,8,2.5,7
2020/5/5 9:02,1.4,8,1.4,8,2.1,8
2020/5/5 9:03,1.3,8,1.4,8,2.2,8
2020/5/5 9:04,1.2,8,1.3,8,2.4,8
2020/5/5 9:05,1.2,8,1.2,8,2.2,10
2020/5/5 9:06,1.2,8,1.2,8,2.5,7
2020/5/5 9:07,1.3,8,1.3,9,3.5,8
2020/5/5 9:08,1.4,8,1.4,9,2.7,8
2020/5/5 9:09,1.4,8,1.4,8,2.7,8
2020/5/5 9:10,1.4,8,1.4,8,2.2,7
2020/5/5 9:11,1.4,8,1.5,8,2.5,8
2020/5/5 9:12,1.5,8,1.5,8,3.1,7
2020/5/5 9:13,1.6,7,1.6,8,2.4,6
2020/5/5 9:14,1.5,7,1.5,8,1.6,8
2020/5/5 9:15,1.5,7,1.5,8,1.9,9
2020/5/5 9:16,1.4,7,1.4,8,2.1,6
2020/5/5 9:17,1.3,7,1.4,8,2.1,8
2020/5/5 9:18,1.3,7,1.4,8,2.6,7
2020/5/5 9:19,1.2,8,1.3,8,2.2,8
2020/5/5 9:20,1.2,7,1.2,8,1.8,6
2020/5/5 9:21,1.2,7,1.2,8,2.9,7
2020/5/5 9:22,1.2,7,1.2,8,2.7,8
2020/5/5 9:23,1.3,7,1.3,7,3,6
2020/5/5 9:24,1.4,7,1.4,7,3.3,6
2020/5/5 9:25,1.5,7,1.5,7,2.9,8
2020/5/5 9:26,1.6,8,1.6,7,2.9,9
2020/5/5 9:27,1.7,8,1.7,8,3.3,9
2020/5/5 9:28,1.7,8,1.7,8,2.6,9
2020/5/5 9:29,1.7,8,1.7,8,2.5,9
2020/5/5 9:30,1.7,8,1.8,8,1.5,8
2020/5/5 9:31,1.7,8,1.8,8,2.4,8
2020/5/5 9:32,1.7,8,1.7,8,2.4,8
2020/5/5 9:33,1.6,8,1.7,8,2.5,8
2020/5/5 9:34,1.6,8,1.6,8,2.2,8
2020/5/5 9:35,1.5,8,1.6,8,2.5,7
2020/5/5 9:36,1.5,8,1.5,8,2,8
2020/5/5 9:37,1.3,8,1.4,8,1.5,8
2020/5/5 9:38,1.4,8,1.4,8,3,8
2020/5/5 9:39,1.4,8,1.4,8,2.6,7
2020/5/5 9:40,1.5,8,1.5,8,2.5,8
2020/5/5 9:41,1.4,8,1.5,8,1.1,8
2020/5/5 9:42,1.3,8,1.4,8,1.4,10
2020/5/5 9:43,1.2,9,1.3,8,1.4,9
2020/5/5 9:44,1.1,9,1.2,8,1.1,11
2020/5/5 9:45,1.1,9,1.1,8,1.3,11
2020/5/5 9:46,1,9,1,8,1.3,11
2020/5/5 9:47,1,10,1,8,1.9,12
2020/5/5 9:48,0.9,10,1,8,1.9,11
2020/5/5 9:49,0.8,10,0.9,8,1.4,10
2020/5/5 9:50,0.8,11,0.8,8,2.9,10
2020/5/5 9:51,0.9,11,0.9,8,3.2,9
2020/5/5 9:52,0.9,11,1,8,2.5,9
2020/5/5 9:53,1.1,11,1.1,9,3,10
2020/5/5 9:54,1.2,11,1.2,11,3.3,10
2020/5/5 9:55,1.3,11,1.3,11,3,10
2020/5/5 9:56,1.4,10,1.4,10,2.7,9
2020/5/5 9:57,1.4,10,1.4,10,2.5,8
2020/5/5 9:58,1.4,10,1.4,10,2,10
2020/5/5 9:59,1.5,10,1.5,10,2,11
2020/5/5 10:00,1.4,10,1.5,10,1.1,12
2020/5/5 10:01,1.2,11,1.4,10,1,13
2020/5/5 10:02,1.4,11,1.4,10,3.3,8
2020/5/5 10:03,1.4,10,1.4,10,3.3,8
2020/5/5 10:04,1.4,10,1.4,10,2.5,8
2020/5/5 10:05,1.4,10,1.4,10,3.2,7
2020/5/5 10:06,1.5,10,1.5,10,3.8,10
2020/5/5 10:07,1.6,10,1.6,10,5,9
2020/5/5 10:08,1.6,10,1.7,10,3.5,8
2020/5/5 10:09,1.7,9,1.7,10,3.2,9
2020/5/5 10:10,1.7,9,1.7,10,1.8,8
2020/5/5 10:11,1.9,9,1.9,9,3.9,8
2020/5/5 10:12,1.9,8,1.9,9,3.3,8
2020/5/5 10:13,1.8,8,1.9,9,3.3,8
2020/5/5 10:14,1.9,9,1.9,9,3.6,11
2020/5/5 10:15,2,9,2,9,5,9
2020/5/5 10:16,1.9,9,2,9,3.1,10
2020/5/5 10:17,1.9,9,1.9,9,5.7,9
2020/5/5 10:18,1.9,9,1.9,9,3.8,8
2020/5/5 10:19,2,9,2,9,3.5,10
2020/5/5 10:20,2.2,9,2.2,9,5,8
2020/5/5 10:21,2.3,9,2.3,9,4.9,8
2020/5/5 10:22,2.3,9,2.3,9,3.7,8
2020/5/5 10:23,2.3,9,2.3,9,3,8
2020/5/5 10:24,2.5,9,2.5,9,4.7,8
2020/5/5 10:25,2.4,9,2.5,9,4.8,8
2020/5/5 10:26,2.5,9,2.5,9,4.8,9
2020/5/5 10:27,2.6,9,2.6,9,4.4,10
2020/5/5 10:28,2.7,9,2.7,9,5.4,8
2020/5/5 10:29,2.7,8,2.7,9,3.8,7
2020/5/5 10:30,2.7,8,2.7,9,4.4,8
2020/5/5 10:31,2.5,8,2.7,9,5,9
2020/5/5 10:32,2.6,9,2.6,9,4.9,10
2020/5/5 10:33,2.8,9,2.8,9,5.7,8
2020/5/5 10:34,2.8,9,2.8,9,4.5,9
2020/5/5 10:35,2.6,9,2.8,9,3.5,8
2020/5/5 10:36,2.5,9,2.6,9,3.7,10
2020/5/5 10:37,2.4,9,2.5,9,2.5,8
2020/5/5 10:38,2.3,9,2.4,9,2.5,7
2020/5/5 10:39,2.2,9,2.3,9,2.7,9
2020/5/5 10:40,2.1,9,2.2,9,3.6,7
2020/5/5 10:41,2.1,9,2.1,9,4.2,7
2020/5/5 10:42,1.9,9,2.1,9,2.7,9
2020/5/5 10:43,2,9,2,9,6.2,9
2020/5/5 10:44,2,9,2.1,9,5,9
2020/5/5 10:45,2.1,9,2.1,9,3,9
2020/5/5 10:46,2.1,9,2.1,9,2.9,9
2020/5/5 10:47,2.2,8,2.2,9,3.3,8
2020/5/5 10:48,2.3,9,2.3,9,4.7,9
2020/5/5 10:49,2.4,9,2.4,9,4.4,9
2020/5/5 10:50,2.4,9,2.5,9,4.9,8
2020/5/5 10:51,2.6,9,2.6,9,6.2,9
2020/5/5 10:52,2.7,9,2.7,9,4.2,8
2020/5/5 10:53,2.5,9,2.7,9,4.9,9
2020/5/5 10:54,2.4,9,2.5,9,3.9,10
2020/5/5 10:55,2.5,9,2.5,9,3.6,10
2020/5/5 10:56,2.4,9,2.5,9,3.3,9
2020/5/5 10:57,2.3,9,2.4,9,1.1,11
2020/5/5 10:58,2.1,9,2.2,9,1.9,10
2020/5/5 10:59,2,10,2.1,9,1,12
2020/5/5 11:00,1.8,9,1.9,9,0.1,9
2020/5/5 11:01,1.4,10,1.7,9,1,15
2020/5/5 11:02,1.1,10,1.4,9,1,15
2020/5/5 11:03,1,10,1.1,9,1.8,7
2020/5/5 11:04,1,9,1,9,4.1,9
2020/5/5 11:05,1,10,1,9,3.3,9
2020/5/5 11:06,0.9,10,1,9,2.1,9
2020/5/5 11:07,1,9,1,9,3.3,8
2020/5/5 11:08,1,9,1,9,3.5,8
2020/5/5 11:09,1.1,8,1.1,10,2.9,9
2020/5/5 11:10,1.2,8,1.2,9,3,8
2020/5/5 11:11,1.4,9,1.4,10,3.2,8
2020/5/5 11:12,1.4,9,1.4,9,1.9,9
2020/5/5 11:13,1.5,9,1.5,9,3,11
2020/5/5 11:14,1.4,9,1.5,9,2.9,11
2020/5/5 11:15,1.4,9,1.4,9,1.4,12
2020/5/5 11:16,1.4,10,1.4,9,2,13
2020/5/5 11:17,1.4,10,1.4,9,2.2,13
2020/5/5 11:18,1.2,10,1.3,9,1.9,10
2020/5/5 11:19,1.2,11,1.2,9,1.5,13
2020/5/5 11:20,1.1,11,1.2,9,1,11
2020/5/5 11:21,1,11,1.1,9,1.6,9
2020/5/5 11:22,1.1,11,1.1,9,2.6,8
2020/5/5 11:23,1.2,11,1.2,9,4.4,8
2020/5/5 11:24,1.3,10,1.3,9,4.3,8
2020/5/5 11:25,1.4,10,1.4,9,3.1,8
2020/5/5 11:26,1.4,9,1.4,10,1.6,6
2020/5/5 11:27,1.4,9,1.4,10,4.5,8
2020/5/5 11:28,1.6,9,1.6,9,4.8,8
2020/5/5 11:29,1.8,8,1.8,8,4.1,7
2020/5/5 11:30,2,8,2,8,3.5,8
2020/5/5 11:31,2.1,8,2.1,8,3.6,8
2020/5/5 11:32,2.1,7,2.1,8,3.7,7
2020/5/5 11:33,2,7,2.2,7,2.7,7
2020/5/5 11:34,2,7,2,7,3.3,6
2020/5/5 11:35,1.9,7,2,7,2.7,8
2020/5/5 11:36,2,7,2,7,3.8,8
2020/5/5 11:37,2,8,2.1,7,4.8,8
2020/5/5 11:38,1.9,8,2.1,7,5.2,8
2020/5/5 11:39,1.9,8,1.9,7,4.4,9
2020/5/5 11:40,1.9,8,1.9,7,3.5,8
2020/5/5 11:41,1.9,8,1.9,7,3.2,8
2020/5/5 11:42,1.7,8,1.9,7,2.2,8
2020/5/5 11:43,1.8,8,1.8,7,2.9,8
2020/5/5 11:44,1.8,8,1.8,7,4.3,8
2020/5/5 11:45,1.8,8,1.8,7,1.3,7
2020/5/5 11:46,1.7,8,1.7,7,3.6,8
2020/5/5 11:47,1.8,8,1.8,8,3.9,6
2020/5/5 11:48,1.8,8,1.8,8,5,8
2020/5/5 11:49,2,8,2,8,6,9
2020/5/5 11:50,2,8,2,8,3.5,7
2020/5/5 11:51,2.2,7,2.2,7,4.4,8
2020/5/5 11:52,2.3,7,2.3,7,4.9,7